Погода в Аральске

Погода в Аральске : погода сейчас, прогноз погоды и архив. Всё, что Вы хотите узнать о погоде в Аральске!

Хотите узнать прогноз погоды в Аральске? Тогда Вам сюда: Погода в Аральске

Поиск расширенной информации на нашем сайте:

Другие новости

Новости СМИ2

Главная страница сайта

Новости сайта

03.07.2017

Напоминаем, что на нашем специализированном сайте Метеоцентр.Азия вы можете получить высокодетализированные автоматические прогнозы погоды по пунктам России, СНГ и мира в авиационном формате (включающие направление и скорость ветра, видимость, явления погоды, количество и форму облачности, нижнюю и верхнюю границу облачности).


Погода в Аральске - сегодня

Время (UTC), дата Ветер
(°,м/с) 
Видим.   Явления Облачность Т
(°С)
Тd
(°С)
f(%) Тe
(°С)
Pmin
(гПа)
dP
(гПа)
Po
(мм)
O2
(г/м3)
Тmin Tmax R s Состояние
почвы
21 23.05.18 060 (СВ) н/о    ясно 
+14.1 -4.7 27 +14  1027.8  0.4  766  294           
00 24.05.18 070 (В) н/о    ясно 
+10.1 -3.3 39 +10  1028.3  0.3  766  298           
03 24.05.18 160 (Ю) 20000 м    ясно 
+17.1 -3.6 24 +18  1028.6  0.6  767  291           
06 24.05.18 тихо ()   20000 м    ясно 
+22.5 -2.7 18 +23  1028.2  -0.3  767  286  +10.1         
09 24.05.18 160 (Ю) 20000 м    ясно 
+25.1 -3 15 +25  1026  -2.2  765  283           
12 24.05.18 170 (Ю) 20000 м    3/0 верхняя 
[Ci fib]
+26.9 -3.8 13 +27  1023.6  -2.4  763  280           
15 24.05.18 150 (ЮВ) 20000 м    4/0 верхняя 
[Ci fib]
+25.1 -4.1 14 +25  1021.8  -1.8  762  282    +27.1       
18 24.05.18 090 (В) н/о    ясно 
+19.4 -3.8 20 +20  1021.6  -0.3  761  287    +27.1       
21 24.05.18 090 (В) н/о    ясно 
+15.1 -3.6 27 +16  1020.7  -1  761  291           
00 25.05.18 тихо ()   20000 м    6/0 верхняя 
[Ci fib]
+13.8 -4.7 27 +14  1020.1  -0.6  760  292           
03 25.05.18 160 (Ю) 20000 м    6/0 верхняя 
[Ci fib]
+19.5 -4.7 19 +21  1019.7  -0.3  760  286           
06 25.05.18 160 (Ю) 20000 м    3/0 верхняя 
[Ci fib]
+26.1 -7.4 10 +26  1018.3  -1.3  759  280  +13.2         
09 25.05.18 160 (Ю) 20000 м    4/0 верхняя 
[Ci fib]
+29.6 -7.8 8 +30  1015.8  -2.4  757  276           
12 25.05.18 200 (Ю) 20000 м    8/0 верхняя 
[Ci fib]
+32 -6 8 +32  1014  -1.8  756  273           
15 25.05.18 240 (ЮЗ) 20000 м    8/0 верхняя 
[Ci fib]
+28.9 -3 12 +29  1012.3  -1.7  755  275    +32.4       
18 25.05.18 тихо ()   н/о    8/0 верхняя 
[Ci fib]
+21.6 -2.5 20 +22  1011.5  -1  754  282    +32.4       
21 25.05.18 030 (СВ) н/о    4/0 верхняя 
[Ci fib]
+18 -3.8 22 +19  1009.7  -1.7  753  285           
00 26.05.18 120 (ЮВ) 20000 м    4/0 верхняя 
[Ci fib]
+14.9 -2.7 30 +16  1008.2  -1.6  751  287           
03 26.05.18 220 (ЮЗ) 20000 м    6/0 верхняя 
[Ci sp]
+22 +5.6 34 +22  1006.5  -1.5  750  279           
06 26.05.18 230 (ЮЗ) 20000 м    8/0 верхняя 
[Ci sp]
+30.9 -9 7 +31  1005.2  -1.2  749  272  +13.1         
09 26.05.18 220 (ЮЗ) 10  20000 м    10/0 верхняя 
[Ci sp]
+33.8 -3.3 9 +34  1003.1  -2  748  268           
12 26.05.18 210 (ЮЗ) 20000 м    8/0 средняя, верхняя 
[Ac und|Ci fib]
+34.9 -3.6 8 +35  1001.2  -1.9  746  267           
15 26.05.18 360 (С) 20000 м  пыльный позёмок  8/4 600 м кучево-дожд., средняя, верхняя 
[Cb calv|Ac As|Ci fib]
+27.7 +5.9 25 +28  1000.7  -0.5  746  272    +35       
18 26.05.18 360 (С) 13-17  н/о  пыльная буря  8/4 600 м кучево-дожд., средняя, верхняя 
[Cb calv|Ac As|Ci fib]
+15.6 +5.8 52 +14  1005.2  4.1  749  285    +35       
21 26.05.18 020 (С) 10{19}  н/о  пыльная буря  10/4 600 м кучево-дожд., средняя 
[Cb calv|Ac As]
+11.5 +4.5 62 +9  1007.2  1.9  751  290           
Время (UTC), дата Ветер
(°,м/с) 
Видим.   Явления Облачность Т
(°С)
Тd
(°С)
f(%) Тe
(°С)
Pmin
(гПа)
dP
(гПа)
Po
(мм)
O2
(г/м3)
Тmin Tmax R s Состояние
почвы

Для получения пояснительной информации подведите курсор к названию столбца.

ПОГОДА в Аральске - архив

Всё, что Вы хотите узнать о погоде в Аральске - удобно и подробно!

Выберите нужную дату (начиная с 1 января 2015* года) и нажмите кнопку "Найти".
Будут отображены архивные сводки погоды по пункту Аральск, начиная с указанной даты.


Отображать данные в формате CSV (для использования в таблицах Excel)


Внимание! Наш архив погоды предназначен исключительно для личного некоммерческого использования в познавательных целях. Если Вам необходимы официальные справки о состоянии погоды (для производственных, юридических, коммерческих и т.п. целей), обращайтесь в органы Росгидромета.

*Примечание: данная дата относится к архиву по метеостанциям СССР (Россия, СНГ, Балтия).
Архив по метеостанциям Зарубежной Европы и Азии (кроме Китая) хранится 10 дней, по другим регионам земного шара (Китай, Африка, Америка, Австралия, Океания) - 1 день.

Аральск - район местоположения метеостанции


Название, широта, долгота, высота метеостанции:
Аральск 46.8°ш. 61.6°д. 62 м над ур. моря [Казахстан]

Дополнительная информация

В oтличие oт бoльшинства пoгoдных сайтoв мы публикуем пoдрoбную метеoинфoрмацию в детальнoм прoфессиoнальнoм фoрмате.

Характеристики температуры и влажнoсти вoздуха измеряются на высoте 2 м в тени вдали oт зданий и деревьев.
Скoрoсть ветра измеряется на высoте 10 м (на урoвне рoста челoвека скoрoсть ветра ниже в 1.5-2 раза). Если метеoстанция нахoдится в гoрoде или в лесу, тo скoрoсть ветра занижена на 2-4 м/с пo сравнению с oткрытым местoм. Скoрoсть ветра над акватoриями крупных рек и oзёр, а также на вершинах хoлмoв на 2-5 м/с выше, чем в oбычных услoвиях.
Атмoсфернoе давление в разных тoчках местнoсти мoжет значительнo oтличаться oт давления на метеoстанции, в зависимoсти oт услoвий рельефа (при пoдъёме на 10 м давление пoнижается примернo на 1 мм рт.ст.).